• MPC Preparation (Info)

  • MPEC 2016-N62 : 2016 NF22

    The following Minor Planet Electronic Circular may be linked-to from your own Web pages, but must not otherwise be redistributed electronically.

    A form allowing access to any MPEC is at the bottom of this page.


    Read MPEC 2016-N61 Read MPEC 2016-N63


    M.P.E.C. 2016-N62                                Issued 2016 July 10, 15:21 UT
    
         The Minor Planet Electronic Circulars contain information on unusual
             minor planets and routine data on comets.  They are published
        on behalf of Division F of the International Astronomical Union by the
              Minor Planet Center, Smithsonian Astrophysical Observatory,
                              Cambridge, MA 02138, U.S.A.
    
                 Prepared using the Tamkin Foundation Computer Network
    
                                  MPC@CFA.HARVARD.EDU
                URL https://www.minorplanetcenter.net/    ISSN 1523-6714
    
                                       2016 NF22
    
    Observations:
         K16N22F  C2016 07 06.18418 15 48 47.23 -14 12 26.5          21.3 VqEN062G96
         K16N22F  C2016 07 06.19015 15 48 46.85 -14 12 17.4          20.8 VqEN062G96
         K16N22F  C2016 07 06.19594 15 48 46.35 -14 12 10.9          21.2 VqEN062G96
         K16N22F* C2016 07 06.24812 15 48 42.12 -14 10 57.7          21.3 VqEN062G96
         K16N22F  C2016 07 06.25518 15 48 41.60 -14 10 48.7          21.4 VqEN062G96
         K16N22F  C2016 07 06.26941 15 48 40.44 -14 10 28.2          22.4 VqEN062G96
         K16N22F KC2016 07 07.33450 15 47 22.88 -13 45 55.8          21.1 RtEN062474
         K16N22F KC2016 07 07.33802 15 47 22.63 -13 45 50.0          21.5 RtEN062474
         K16N22F KC2016 07 07.34158 15 47 22.34 -13 45 45.2          21.6 RtEN062474
         K16N22F  C2016 07 10.18328 15 44 16.22 -12 43 46.9          21.0 VqEN062G96
         K16N22F  C2016 07 10.18947 15 44 15.78 -12 43 38.8                qEN062G96
         K16N22F  C2016 07 10.19566 15 44 15.36 -12 43 30.7                qEN062G96
         K16N22F KC2016 07 10.44967 15 44 00.28 -12 37 51.2          21.1 RtEN062474
         K16N22F KC2016 07 10.45319 15 44 00.06 -12 37 46.8          20.8 RtEN062474
    
    Observer details:
    474 Mount John Observatory, Lake Tekapo.  Observers A. C. Gilmore,
        P. M. Kilmartin.  Measurer P. M. Kilmartin.  1.0-m f/7.7 reflector + CCD.
    G96 Mt. Lemmon Survey.  Observer D. C. Fuls.  Measurers E. J. Christensen,
        D. C. Fuls, A. R. Gibbs, A. D. Grauer, J. A. Johnson, R. A. Kowalski,
        S. M. Larson, G. J. Leonard, R. G. Matheny, R. L. Seaman, F. C. Shelly.
        1.5-m reflector + 10K CCD.
    
    Orbital elements:
    2016 NF22                                                Earth MOID = 0.1139 AU
    Epoch 2016 July 31.0 TT = JDT 2457600.5                 MPC
    M 283.87494              (2000.0)            P               Q
    n   0.65549074     Peri.  140.31599     +0.72634769     -0.60922457
    a   1.3124769      Node   260.21457     +0.51954147     +0.78976395
    e   0.3950189      Incl.   18.83954     +0.44999522     +0.07154239
    P   1.50           H   20.3           G   0.15           U   9
    Residuals in seconds of arc
    160706 G96  0.9-  0.2+    160706 G96  0.3+  0.1+    160710 G96  0.1-  0.1+
    160706 G96  0.6+  1.0+    160707 474  0.3-  0.9-    160710 G96  0.4-  0.3+
    160706 G96  0.1+  0.5-    160707 474  0.0   0.2+    160710 474  0.1+  0.1-
    160706 G96  0.1-  0.2+    160707 474  0.3-  0.2+    160710 474  0.1+  0.2-
    160706 G96  0.6+  0.6-    160710 G96  0.5+  0.1-
    
    Ephemeris:
    2016 NF22                a,e,i = 1.31, 0.40, 19                  q = 0.7940
    Date    TT    R. A. (2000) Decl.     Delta      r     Elong.  Phase     V
    2016 06 10    16 41 45.0 -25 25 04   0.6163  1.6282   172.4     4.8    20.7
    ...
    2016 06 25    16 07 06.2 -18 52 32   0.6034  1.5673   149.7    19.1    21.1
    ...
    2016 07 03    15 53 10.1 -15 27 50   0.6167  1.5315   138.0    26.4    21.4
    ...
    2016 07 09    15 45 29.7 -13 09 06   0.6335  1.5033   129.8    31.3    21.5
    2016 07 10    15 44 27.3 -12 47 32   0.6367  1.4984   128.5    32.1    21.6
    2016 07 11    15 43 29.0 -12 26 26   0.6400  1.4936   127.2    32.8    21.6
    ...
    2016 07 17    15 39 02.1 -10 29 51   0.6617  1.4637   119.9    37.0    21.7
    ...
    2016 07 25    15 36 33.1 -08 20 41   0.6934  1.4219   111.2    41.8    21.9
    ...
    2016 08 09    15 40 59.1 -05 28 02   0.7522  1.3381    97.4    48.7    22.1
    
    A. U. Tomatic                (C) Copyright 2016 MPC           M.P.E.C. 2016-N62
    

    Read MPEC 2016-N61 Read MPEC 2016-N63


    MPEC number:

    Enter an MPEC number in one of the following forms:

    • 1997-B01 (the full form)
    • J97B01 (the packed version of the full form)
    • B01 (the abbreviated form)